TimeEST,TemperatureF,Dew PointF,Humidity,Sea Level PressureIn,VisibilityMPH,Wind Direction,Wind SpeedMPH,Gust SpeedMPH,PrecipitationIn,Events,Conditions,WindDirDegrees,DateUTC
12:56 AM,33.1,28.9,85,30.35,1.8,NE,9.2,19.6,0.02,Snow,Light Snow,50,2013-12-09 05:56:00
1:08 AM,33.8,30.2,87,30.33,2.5,ENE,11.5,-,0.00,,Overcast,60,2013-12-09 06:08:00
1:18 AM,33.8,30.2,87,30.33,3.0,ENE,13.8,-,0.00,,Overcast,60,2013-12-09 06:18:00
1:26 AM,33.8,30.2,87,30.34,3.0,ENE,12.7,-,0.00,,Overcast,60,2013-12-09 06:26:00
1:56 AM,33.1,30.0,89,30.31,5.0,ENE,16.1,21.9,0.00,,Overcast,60,2013-12-09 06:56:00
2:15 AM,33.8,30.2,87,30.30,3.0,NE,13.8,-,0.01,Rain,Light Freezing Rain,50,2013-12-09 07:15:00
2:36 AM,33.8,30.2,87,30.30,5.0,NE,15.0,-,0.01,Rain,Light Freezing Rain,50,2013-12-09 07:36:00
2:43 AM,33.8,30.2,87,30.30,7.0,ENE,16.1,23.0,0.01,Rain,Light Rain,60,2013-12-09 07:43:00
2:56 AM,33.1,30.0,89,30.29,5.0,NE,12.7,-,0.01,,Overcast,50,2013-12-09 07:56:00
3:04 AM,33.8,28.4,81,30.28,4.0,NE,13.8,24.2,N/A,,Overcast,50,2013-12-09 08:04:00
3:12 AM,33.8,28.4,81,30.27,5.0,ENE,13.8,24.2,0.00,Rain,Light Freezing Rain,60,2013-12-09 08:12:00
3:51 AM,33.8,30.2,87,30.24,2.5,ENE,17.3,21.9,0.01,Rain,Light Freezing Rain,60,2013-12-09 08:51:00
3:56 AM,33.1,28.9,85,30.24,3.0,ENE,16.1,25.3,0.01,Rain,Light Freezing Rain,60,2013-12-09 08:56:00
4:46 AM,33.8,30.2,87,30.21,4.0,NE,15.0,-,0.01,,Overcast,50,2013-12-09 09:46:00
4:56 AM,34.0,30.9,89,30.20,4.0,ENE,17.3,23.0,0.01,,Overcast,60,2013-12-09 09:56:00
5:42 AM,33.8,32.0,93,30.17,9.0,ENE,15.0,-,0.01,,Overcast,60,2013-12-09 10:42:00
5:56 AM,35.1,32.0,89,30.16,8.0,NE,15.0,-,0.01,Rain,Light Rain,50,2013-12-09 10:56:00
6:56 AM,36.0,34.0,93,30.13,5.0,NE,11.5,-,0.03,Rain,Light Rain,50,2013-12-09 11:56:00
6:58 AM,35.6,33.8,93,30.13,4.0,NE,10.4,-,0.00,Rain,Light Rain,40,2013-12-09 11:58:00
7:26 AM,37.4,35.6,93,30.12,2.0,NE,10.4,-,0.02,Rain,Light Rain,50,2013-12-09 12:26:00
7:56 AM,37.0,35.1,93,30.14,2.0,North,8.1,-,0.03,Rain,Light Rain,10,2013-12-09 12:56:00
8:11 AM,37.4,35.6,93,30.13,1.2,NNE,6.9,-,0.02,Rain,Light Rain,30,2013-12-09 13:11:00
8:48 AM,37.4,35.6,93,30.13,1.0,NNE,9.2,-,0.04,Rain,Light Rain,20,2013-12-09 13:48:00
8:56 AM,37.9,36.0,93,30.13,1.0,NNE,6.9,-,0.04,Rain,Light Rain,20,2013-12-09 13:56:00
9:42 AM,41.0,39.2,93,30.08,1.0,NNE,11.5,-,0.04,Rain,Light Rain,20,2013-12-09 14:42:00
9:56 AM,41.0,39.0,93,30.07,1.0,NNE,9.2,-,0.04,,Light Drizzle,30,2013-12-09 14:56:00
10:56 AM,43.0,41.0,93,30.04,1.0,NNE,8.1,-,0.02,,Light Drizzle,20,2013-12-09 15:56:00
11:56 AM,45.0,43.0,93,29.97,1.0,North,10.4,-,0.02,,Light Drizzle,10,2013-12-09 16:56:00
12:56 PM,44.1,42.1,93,29.92,1.0,North,9.2,-,0.01,,Light Drizzle,10,2013-12-09 17:56:00
1:56 PM,44.1,42.1,93,29.91,1.0,North,9.2,-,0.00,,Light Drizzle,350,2013-12-09 18:56:00
2:56 PM,42.1,39.9,92,29.94,1.0,NNW,10.4,-,0.00,,Overcast,330,2013-12-09 19:56:00
3:56 PM,41.0,39.0,93,29.96,1.0,NW,8.1,-,0.00,,Overcast,310,2013-12-09 20:56:00
4:56 PM,41.0,39.0,93,29.96,1.0,West,5.8,-,N/A,,Overcast,280,2013-12-09 21:56:00
5:56 PM,41.0,39.0,93,29.96,3.0,West,9.2,-,N/A,,Overcast,270,2013-12-09 22:56:00
6:27 PM,39.2,37.4,93,29.96,3.0,West,8.1,-,N/A,,Overcast,270,2013-12-09 23:27:00
6:56 PM,39.0,37.0,93,29.96,3.0,West,8.1,-,N/A,,Overcast,270,2013-12-09 23:56:00
7:56 PM,39.0,36.0,89,29.99,6.0,West,9.2,-,N/A,,Mostly Cloudy,270,2013-12-10 00:56:00
8:56 PM,37.0,34.0,89,29.99,7.0,West,9.2,-,N/A,,Mostly Cloudy,260,2013-12-10 01:56:00
9:56 PM,36.0,33.1,89,29.98,6.0,West,8.1,-,N/A,,Mostly Cloudy,260,2013-12-10 02:56:00
10:56 PM,34.0,32.0,92,29.98,5.0,WSW,6.9,-,N/A,,Mostly Cloudy,240,2013-12-10 03:56:00
11:56 PM,34.0,32.0,92,29.98,4.0,WSW,9.2,-,N/A,,Mostly Cloudy,240,2013-12-10 04:56:00